CAPE
942 959 830 870 774 609 597 968 915 1183 1045 1503 1704 1506 1553 1590 1586 1280 1179 1279 1025 887 900 1091 866 729 497 454 826 735 1051 646 361 293 704 879 694 759 742 468 353 406 196
859 1119 1108 965 1048 803 768 843 1049 1123 1092 1290 1590 1526 1292 1437 1406 1264 1177 1155 1095 807 747 564 535 739 621 908 676 894 1075 747 537 319 352 614 778 755 740 656 645 324 268
446 947 1205 1147 1089 1129 1039 784 806 915 879 807 997 1052 990 915 1158 1178 1189 911 903 761 852 633 518 567 937 852 921 870 712 1066 732 616 525 557 625 737 619 678 583 336 320
740 1022 1128 1108 935 968 982 913 758 691 855 813 775 775 757 737 716 340 1184 1090 847 799 978 942 731 758 640 792 900 792 597 694 653 666 519 643 675 576 528 474 383 458 392
1098 1126 1058 840 791 510 724 693 606 513 781 673 754 725 547 519 704 763 1010 1165 1206 1040 957 986 1110 1151 1179 966 784 693 602 643 614 745 685 668 679 679 386 324 315 313 300
1259 912 836 803 627 284 468 578 429 351 419 437 747 598 492 332 1076 1204 1111 938 942 908 864 758 744 748 921 992 961 869 749 738 713 800 817 744 781 687 625 633 454 285 224
933 894 743 756 556 390 302 452 327 207 239 269 324 445 668 738 1057 968 990 1024 910 819 819 778 818 1165 874 873 844 1064 988 868 788 719 674 629 621 616 558 665 433 365 297
603 574 552 539 427 303 184 305 331 243 73 74 125 227 493 586 761 1096 1082 1007 959 869 730 774 699 689 700 717 724 788 792 777 746 632 550 448 363 237 209 286 237 148 124
249 423 346 543 469 346 281 257 207 218 36 38 97 178 290 442 565 846 984 947 824 701 628 683 848 792 821 703 583 592 600 566 556 536 447 315 265 217 160 163 273 164 131
0 5 72 91 137 83 120 375 95 17 97 136 170 90 246 310 330 408 500 631 603 600 659 641 623 567 533 613 660 562 543 462 453 395 231 101 85 97 67 51 55 48 48
134 55 5 32 37 12 0 4 61 83 76 35 142 147 150 181 201 169 246 185 148 267 394 418 411 364 348 405 471 436 374 400 368 281 210 177 235 106 33 15 75 17 29
550 404 548 116 104 35 39 25 7 25 26 30 64 59 78 55 57 57 73 79 84 144 253 302 287 228 139 128 155 107 52 63 89 133 168 202 104 66 49 65 47 47 39
183 72 411 418 72 209 387 118 96 75 65 68 59 14 34 31 9 8 1 0 5 40 112 156 193 197 179 143 70 65 49 27 30 41 81 64 63 19 13 21 21 33 0
0 28 46 88 89 111 1 91 148 60 49 105 54 56 68 52 37 8 2 3 16 48 44 33 42 71 27 2 1 18 30 30 31 49 65 46 21 6 15 4 1 0 0
1 1 164 3 1 1 0 0 4 19 29 60 50 66 68 66 52 50 33 67 49 52 43 14 8 4 1 0 0 0 0 0 0 0 0 0 0 0 0 1 0 0 18
6 14 2 0 0 1 0 0 5 33 33 12 14 39 56 43 32 25 13 3 3 3 2 0 0 0 0 0 0 0 0 0 0 0 0 0 0 0 1 0 0 0 0
31 65 31 0 0 3 6 6 6 10 9 8 17 28 4 0 0 0 2 3 0 0 0 0 0 0 0 0 0 0 0 0 0 0 0 0 0 0 0 0 0 0 0
71 48 70 85 46 64 50 35 13 11 15 17 23 43 27 5 19 27 24 11 14 13 7 0 0 0 0 0 0 0 0 0 0 0 0 0 0 0 0 0 0 0 0
69 83 104 135 140 156 142 154 68 52 57 42 27 52 68 34 8 25 30 28 19 17 0 0 0 0 0 0 0 0 0 0 0 0 0 0 0 0 0 0 0 0 0
14 55 75 101 119 190 257 280 202 163 129 38 87 187 58 46 26 24 19 10 1 0 0 0 0 0 0 0 0 0 0 0 0 0 0 0 0 0 0 0 0 0 0
75 31 75 149 146 170 311 416 393 358 332 136 44 43 19 0 0 0 0 0 0 0 5 0 0 0 0 0 0 0 0 0 0 0 0 0 0 0 0 0 0 0 0
60 15 101 146 170 178 272 333 375 377 382 284 249 117 0 0 0 0 0 0 0 0 0 0 0 0 0 0 0 0 0 0 0 0 0 0 0 0 0 0 0 0 0
152 184 69 97 121 173 199 278 226 274 259 286 348 256 1 0 0 0 0 0 0 0 0 0 0 0 0 0 0 0 0 0 0 0 0 0 0 0 0 0 0 0 0
46 101 136 60 25 135 175 46 0 0 11 158 152 60 0 0 0 0 0 0 0 0 0 0 0 0 0 0 0 0 0 0 0 0 0 0 0 0 0 0 0 0 0
0 0 0 0 3 2 0 0 0 0 0 0 0 0 0 0 0 0 0 0 0 0 0 0 0 0 0 0 0 0 0 0 0 0 0 0 0 0 0 0 0 0 0
0 0 0 0 0 0 0 0 0 0 0 0 0 1 0 3 1 0 0 0 0 0 0 0 0 0 0 0 0 0 0 0 0 0 0 0 0 0 0 0 0 0 7
CIN
-110 -123 -109 -106 -83 -88 -77 -89 -83 -32 -57 -50 -65 -76 -38 -34 -35 -18 -54 -25 -25 -23 -38 -22 -22 -20 -16 -13 -44 -37 -23 -28 -35 -36 -40 -39 -15 -91 -57 -63 -19 -23 -42
-110 -113 -113 -121 -83 -71 -90 -74 -57 -47 -27 -28 -37 -38 -33 -28 -36 -23 -13 -47 -31 -30 -32 -34 -35 -99 -56 -37 -22 -38 -33 -30 -30 -33 -88 -34 -41 -31 -22 -19 -38 -56 -51
-27 -126 -99 -92 -82 -55 -48 -87 -75 -50 -26 -40 -16 -21 -31 -23 -19 -24 -24 -34 -42 -39 -26 -19 -17 -19 -21 -26 -42 -27 -81 -38 -45 -38 -41 -55 -47 -59 -36 -29 -41 -29 -44
-12 -98 -111 -86 -78 -83 -73 -56 -55 -71 -46 -16 -14 -24 -22 -29 -20 -122 -31 -33 -44 -64 -33 -27 -26 -19 -11 -33 -19 -17 -35 -43 -40 -32 -50 -52 -45 -29 -36 -27 -41 -44 -37
-56 -72 -56 -62 -65 -81 -38 -55 -50 -39 -84 -45 -26 -20 -25 -144 -124 -120 -70 -58 -28 -33 -35 -31 -17 -14 -13 -21 -23 -27 -59 -42 -33 -28 -30 -39 -39 -28 -28 -21 -23 -24 -28
-32 -82 -43 -41 -51 -109 -25 -34 -28 -43 -33 -25 -25 -32 -17 -27 -53 -43 -34 -34 -53 -36 -27 -21 -26 -31 -42 -32 -26 -25 -11 -13 -18 -22 -19 -24 -27 -19 -21 -16 -8 -24 -26
-3 -18 -55 -24 -40 -40 -100 -55 -41 -61 -50 -33 -23 -33 -18 -28 -28 -20 -19 -17 -26 -30 -28 -32 -24 -60 -23 -28 -22 -18 -16 -16 -13 -13 -13 -19 -28 -27 -25 -20 -18 -17 -11
-45 -37 -48 -36 -34 -20 -71 -112 -39 -28 -48 -106 -52 -24 -61 -36 -33 -17 -10 -10 -9 -9 -8 -27 -16 -29 -21 -23 -32 -23 -24 -26 -12 -21 -24 -34 -33 -42 -46 -27 -18 -30 -22
-91 -62 -56 -15 -18 -27 -16 -24 -14 -4 -28 -38 -35 -100 -70 -18 -30 -15 -9 -9 -10 -18 -20 -49 -26 -16 -17 -38 -26 -27 -24 -18 -14 -10 -21 -27 -29 -19 -25 -16 -1 -1 -1
0 -83 -171 -120 -78 -54 -18 -1 0 -9 -37 -44 -41 -161 -71 -52 -44 -74 -50 -38 -40 -38 -41 -29 -21 -7 -44 -26 -18 -31 -22 -18 -15 -11 -11 -30 -33 -23 -24 -27 -24 -17 -15
-175 -35 -66 -156 -130 -153 0 -2 -32 -5 -35 -8 -23 -48 -15 -5 -35 -33 -42 -46 -55 -78 -74 -34 -22 -27 -37 -34 -17 -15 -17 -16 -7 -7 -9 -8 -3 -10 -16 -25 -5 -14 -6
-7 -16 -2 -71 -58 -72 -40 -23 -3 -12 -12 -21 -8 -6 -10 -8 -12 -34 -35 -70 -48 -39 -15 -12 -15 -14 -20 -18 -6 -13 -39 -41 -18 -2 -5 -1 -4 -10 -10 -1 -4 -3 -5
-56 -103 -3 -2 -55 -4 0 -5 -5 0 -1 -8 -16 -14 -26 -22 -58 -85 -23 0 -6 -5 -1 -2 0 0 0 0 -1 -1 0 -7 -4 -1 -1 -1 -2 0 -1 -1 -5 -1 0
0 -36 -87 -32 -29 -26 0 -13 -3 -19 -24 -19 -40 -35 -44 -54 -64 -95 -114 -12 -65 -24 -1 -9 -11 -8 -17 -18 -6 -25 -8 -16 -20 -8 -2 -3 -7 -20 -11 -4 -2 -8 -38
-1 -2 -20 -1 0 0 0 0 -5 -44 -50 -52 -68 -44 -41 -27 -84 -112 -84 -45 -55 -47 -19 -4 -23 -2 -4 0 0 0 0 0 0 0 0 0 0 0 0 -11 0 0 -3
0 -5 -7 0 0 -8 -17 -23 -25 -29 -33 -38 -63 -67 -50 -28 -91 -112 -108 -43 -103 -35 -38 0 0 0 0 0 0 0 0 0 0 0 0 0 0 0 -1 0 0 0 0
-11 -10 -46 0 0 -28 -9 -33 -31 -66 -49 -38 -30 -22 -3 0 0 0 -30 -21 0 0 0 0 0 0 0 0 0 0 0 0 0 0 0 -4 -5 -1 0 0 0 0 0
-52 -40 -26 -28 -69 -61 -87 -109 -92 -78 -75 -51 -23 -18 -40 -74 -72 -56 -53 -50 -57 -46 -38 0 0 0 0 0 0 0 0 0 0 0 0 0 0 0 0 0 0 0 0
-48 -30 -30 -65 -58 -58 -70 -63 -67 -76 -55 -69 -42 -11 -9 -22 -35 -61 -39 -38 -37 -32 -1 0 0 0 0 0 0 0 0 0 0 0 0 0 0 0 0 0 0 0 0
-91 -54 -61 -87 -88 -56 -37 -35 -56 -45 -45 -119 -16 0 -15 -9 -27 -48 -33 -25 -3 0 0 0 0 0 0 0 0 0 0 0 0 0 0 0 0 0 0 0 0 0 0
-34 -78 -49 -34 -36 -49 -35 -19 -19 -23 -29 -60 -59 -44 -45 0 0 0 0 0 0 0 -16 0 0 0 0 0 0 0 0 0 0 0 0 0 0 0 0 0 0 0 0
-67 -62 -51 -36 -35 -30 -29 -28 -21 -32 -44 -55 -50 -81 0 0 0 0 0 0 0 0 0 0 0 0 0 0 0 0 0 0 0 0 0 0 0 0 0 0 0 0 0
-50 -51 -129 -97 -63 -33 -30 -33 -53 -34 -30 -40 -46 -50 -57 0 0 0 0 0 0 0 0 0 0 0 0 0 0 0 0 0 0 0 0 0 0 0 0 0 0 0 0
-109 -74 -74 -121 -163 -58 -48 -118 0 0 -19 -71 -50 -47 0 0 0 0 0 0 0 0 0 0 0 0 0 0 0 0 0 0 0 0 0 0 0 0 0 0 0 0 0
0 0 0 0 -18 -12 0 0 0 0 0 0 0 0 0 0 0 0 0 0 0 0 0 0 0 0 0 0 0 0 0 0 0 0 0 0 0 0 0 0 0 0 0
0 0 0 0 0 0 0 0 0 0 0 0 -1 -1 0 -1 0 0 0 0 0 0 0 0 0 0 0 0 0 0 0 0 0 0 0 0 0 0 -3 0 0 0 -2
Wind_Speed
10 8 11 13 13 16 14 14 14 15 15 14 15 18 18 20 20 19 16 16 15 16 16 14 13 13 11 11 10 11 11 13 13 8 8 11 11 13 16 17 17 18 17
9 12 12 15 14 13 12 15 17 17 18 18 18 20 20 20 22 22 20 21 18 17 17 18 15 16 14 16 13 16 16 14 16 15 12 11 12 16 16 18 18 18 16
13 14 15 16 15 13 15 14 17 20 20 20 20 21 22 22 23 23 23 22 22 21 21 21 17 18 19 18 18 17 16 17 19 23 17 15 15 16 19 18 18 19 20
16 17 19 19 20 21 20 17 16 20 22 21 22 23 23 25 24 26 24 24 22 26 24 26 22 24 23 23 21 18 18 20 22 22 21 20 19 18 21 22 21 24 26
13 18 23 26 33 39 35 29 28 26 22 23 24 26 27 27 25 27 26 23 25 24 27 27 26 24 22 26 28 23 24 24 24 23 23 25 25 24 24 25 25 28 28
15 16 23 32 32 33 31 34 29 38 36 36 28 27 27 27 24 23 26 24 20 22 27 27 26 23 23 23 23 24 27 26 24 24 23 23 23 25 27 28 30 29 29
17 23 21 26 27 25 37 43 37 32 43 37 34 29 26 27 24 22 20 24 23 23 22 24 24 24 25 25 23 23 24 22 23 27 25 26 28 30 29 30 31 32 32
23 20 18 23 22 24 28 43 42 33 nan nan 39 32 27 34 30 28 25 27 26 24 23 21 21 22 22 23 24 23 27 30 28 28 29 33 33 32 33 35 37 40 40
22 19 20 24 23 24 23 25 31 36 nan nan nan 35 35 43 39 37 35 33 29 26 25 27 23 23 27 28 27 26 31 33 37 46 47 45 44 43 39 39 41 42 40
nan nan nan nan 18 nan 18 24 nan nan nan 29 52 nan 53 46 38 34 30 32 31 31 30 32 32 32 38 32 32 32 31 34 39 41 42 44 nan nan nan nan nan nan nan
20 nan nan nan nan nan nan nan nan nan nan nan 35 42 56 46 42 40 39 36 39 39 37 34 33 36 41 41 37 36 36 44 44 45 47 46 46 48 nan nan nan nan nan
25 25 22 22 22 nan nan nan nan nan nan nan nan nan nan nan nan nan nan nan nan 32 32 34 35 38 42 44 41 42 nan nan nan 48 50 52 54 nan nan nan nan nan nan
28 nan 26 23 nan 23 22 21 nan nan nan nan nan nan nan nan nan nan nan nan nan nan 36 37 42 44 46 46 nan nan nan nan nan nan nan nan nan nan nan nan nan nan nan
nan nan nan nan nan 24 nan nan 20 nan nan 13 nan nan nan nan nan nan nan nan nan nan nan nan nan nan nan nan nan nan nan nan nan nan nan nan nan nan nan nan nan nan nan
nan nan 32 nan nan nan nan nan nan nan nan nan nan nan nan nan nan nan nan nan nan nan nan nan nan nan nan nan nan nan nan nan nan nan nan nan nan nan nan nan nan nan nan
nan nan nan nan nan nan nan nan nan nan nan nan nan nan nan nan nan nan nan nan nan nan nan nan nan nan nan nan nan nan nan nan nan nan nan nan nan nan nan nan nan nan nan
nan nan nan nan nan nan nan nan nan nan nan nan nan nan nan nan nan nan nan nan nan nan nan nan nan nan nan nan nan nan nan nan nan nan nan nan nan nan nan nan nan nan nan
nan nan nan nan nan nan nan nan nan nan nan nan nan nan nan nan nan nan nan nan nan nan nan nan nan nan nan nan nan nan nan nan nan nan nan nan nan nan nan nan nan nan nan
nan nan 18 18 19 20 20 21 nan nan nan nan nan nan nan nan nan nan nan nan nan nan nan nan nan nan nan nan nan nan nan nan nan nan nan nan nan nan nan nan nan nan nan
nan nan nan 15 14 13 12 15 20 23 25 nan nan 25 nan nan nan nan nan nan nan nan nan nan nan nan nan nan nan nan nan nan nan nan nan nan nan nan nan nan nan nan nan
nan nan nan 11 13 15 14 13 12 14 13 14 nan nan nan nan nan nan nan nan nan nan nan nan nan nan nan nan nan nan nan nan nan nan nan nan nan nan nan nan nan nan nan
nan nan 12 12 10 9 10 10 9 10 8 7 7 8 nan nan nan nan nan nan nan nan nan nan nan nan nan nan nan nan nan nan nan nan nan nan nan nan nan nan nan nan nan
7 9 nan nan 11 10 10 8 7 7 5 2 5 6 nan nan nan nan nan nan nan nan nan nan nan nan nan nan nan nan nan nan nan nan nan nan nan nan nan nan nan nan nan
nan 9 10 nan nan 12 10 nan nan nan nan 7 6 nan nan nan nan nan nan nan nan nan nan nan nan nan nan nan nan nan nan nan nan nan nan nan nan nan nan nan nan nan nan
nan nan nan nan nan nan nan nan nan nan nan nan nan nan nan nan nan nan nan nan nan nan nan nan nan nan nan nan nan nan nan nan nan nan nan nan nan nan nan nan nan nan nan
nan nan nan nan nan nan nan nan nan nan nan nan nan nan nan nan nan nan nan nan nan nan nan nan nan nan nan nan nan nan nan nan nan nan nan nan nan nan nan nan nan nan nan
Wind_Direction
266 224 263 258 256 245 238 236 235 233 237 234 228 250 250 251 250 252 249 248 257 265 258 274 272 268 261 269 281 280 283 292 304 286 292 282 295 311 325 317 305 293 296
267 269 266 260 257 258 250 243 238 248 244 237 239 241 245 248 249 253 250 263 263 260 260 263 264 269 264 267 269 278 282 288 296 300 287 295 296 307 311 315 306 302 305
285 279 262 273 261 254 245 242 247 244 244 245 247 245 243 244 247 244 251 252 259 262 268 269 264 268 268 266 271 275 281 284 293 289 289 285 282 289 294 305 305 292 289
311 302 281 283 276 258 250 245 242 248 248 244 242 250 247 246 250 251 252 247 254 251 256 263 262 270 273 274 275 281 282 282 285 288 294 297 297 294 289 292 296 292 291
297 292 280 263 255 245 233 233 237 240 242 243 236 235 241 244 246 251 260 249 255 255 256 255 257 264 275 272 273 280 283 283 289 294 297 298 297 293 294 294 298 296 295
312 287 277 266 267 269 262 257 238 242 239 234 229 240 238 240 247 259 256 251 257 261 256 254 256 262 271 274 284 289 289 288 287 288 289 292 291 293 294 293 293 294 296
293 292 297 288 281 271 268 251 260 242 238 236 231 230 238 237 243 251 257 250 251 251 253 257 258 262 269 270 273 275 283 292 291 287 291 291 287 286 283 286 294 296 295
286 281 272 283 290 278 285 268 265 269 nan nan 233 228 231 238 238 245 250 246 248 249 254 258 260 260 264 270 269 268 270 269 269 280 280 280 278 281 286 288 290 289 290
295 291 284 274 277 280 277 279 275 275 nan nan nan 233 235 245 244 243 245 244 245 247 249 252 261 267 263 267 269 270 273 272 270 276 279 280 278 276 278 285 289 291 292
nan nan nan nan 291 nan 282 277 nan nan nan 276 243 nan 239 239 229 229 234 243 242 242 247 252 248 263 267 270 275 277 279 280 278 278 278 277 nan nan nan nan nan nan nan
307 nan nan nan nan nan nan nan nan nan nan nan 264 244 232 230 227 229 229 231 252 242 247 248 251 261 266 262 264 273 276 282 287 280 279 278 276 276 nan nan nan nan nan
294 294 298 292 285 nan nan nan nan nan nan nan nan nan nan nan nan nan nan nan nan 256 261 263 262 266 267 268 269 270 nan nan nan 279 279 279 278 nan nan nan nan nan nan
290 nan 295 293 nan 288 287 286 nan nan nan nan nan nan nan nan nan nan nan nan nan nan 265 265 271 266 268 267 nan nan nan nan nan nan nan nan nan nan nan nan nan nan nan
nan nan nan nan nan 280 nan nan 274 nan nan 272 nan nan nan nan nan nan nan nan nan nan nan nan nan nan nan nan nan nan nan nan nan nan nan nan nan nan nan nan nan nan nan
nan nan 294 nan nan nan nan nan nan nan nan nan nan nan nan nan nan nan nan nan nan nan nan nan nan nan nan nan nan nan nan nan nan nan nan nan nan nan nan nan nan nan nan
nan nan nan nan nan nan nan nan nan nan nan nan nan nan nan nan nan nan nan nan nan nan nan nan nan nan nan nan nan nan nan nan nan nan nan nan nan nan nan nan nan nan nan
nan nan nan nan nan nan nan nan nan nan nan nan nan nan nan nan nan nan nan nan nan nan nan nan nan nan nan nan nan nan nan nan nan nan nan nan nan nan nan nan nan nan nan
nan nan nan nan nan nan nan nan nan nan nan nan nan nan nan nan nan nan nan nan nan nan nan nan nan nan nan nan nan nan nan nan nan nan nan nan nan nan nan nan nan nan nan
nan nan 331 320 307 296 282 264 nan nan nan nan nan nan nan nan nan nan nan nan nan nan nan nan nan nan nan nan nan nan nan nan nan nan nan nan nan nan nan nan nan nan nan
nan nan nan 356 338 323 307 285 271 261 256 nan nan 247 nan nan nan nan nan nan nan nan nan nan nan nan nan nan nan nan nan nan nan nan nan nan nan nan nan nan nan nan nan
nan nan nan 353 350 338 324 310 290 274 274 270 nan nan nan nan nan nan nan nan nan nan nan nan nan nan nan nan nan nan nan nan nan nan nan nan nan nan nan nan nan nan nan
nan nan 19 11 1 344 339 337 319 301 295 275 253 266 nan nan nan nan nan nan nan nan nan nan nan nan nan nan nan nan nan nan nan nan nan nan nan nan nan nan nan nan nan
14 23 nan nan 15 26 37 32 6 355 20 3 283 274 nan nan nan nan nan nan nan nan nan nan nan nan nan nan nan nan nan nan nan nan nan nan nan nan nan nan nan nan nan
nan 11 7 nan nan 13 17 nan nan nan nan 22 11 nan nan nan nan nan nan nan nan nan nan nan nan nan nan nan nan nan nan nan nan nan nan nan nan nan nan nan nan nan nan
nan nan nan nan nan nan nan nan nan nan nan nan nan nan nan nan nan nan nan nan nan nan nan nan nan nan nan nan nan nan nan nan nan nan nan nan nan nan nan nan nan nan nan
nan nan nan nan nan nan nan nan nan nan nan nan nan nan nan nan nan nan nan nan nan nan nan nan nan nan nan nan nan nan nan nan nan nan nan nan nan nan nan nan nan nan nan